[[{"header":{"parameterUnit":"m.s-1","parameterCategory":2,"la1":30.2991,"la2":30.254,"lo1":-89.0895,"lo2":-89.0444,"dy":0.0017,"dx":0.0017,"nx":28,"ny":28,"refTime":"2024-08-09T03:00:00:Z","depth":"0","parameterNumber":2,"parameterNumberName":"U-component_of_CURRENTS"},"data":[0,0,0,0,0,0,0,0,0,0,0,0,0,0,0,0,0,0,0,0,0,0,0,0,0,0,0,0,0,0,0,0,0,0,0,0,0,0,0,0,0,0,0,0,0,0,0,0,0,0,0,0,0,0,0,0,0,0,-0.2526,-0.2526,0,-0.2528,-0.2528,-0.2528,-0.2581,-0.2583,-0.2584,-0.2586,-0.2534,-0.2531,-0.2528,0,0,0,0,0,0,0,0,0,0,0,0,0,-0.2455,-0.2457,-0.2526,-0.2526,-0.2526,-0.2528,-0.2528,-0.2528,-0.2581,-0.2583,-0.2585,-0.2586,-0.2535,-0.2531,-0.2528,0,0,0,0,0,0,0,0,0,0,0,0,0,-0.2474,-0.2457,-0.2526,-0.2554,-0.2556,-0.2528,-0.2528,-0.2528,-0.2581,-0.2583,-0.2585,-0.2587,-0.2536,-0.2532,-0.2527,-0.2458,0,0,-0.2515,-0.2513,0,0,0,0,0,0,0,0,-0.2473,-0.2476,-0.2549,-0.2552,-0.2554,-0.2557,-0.2484,-0.2502,-0.258,-0.257,-0.2586,-0.2588,-0.2535,-0.2531,-0.2526,-0.2455,-0.2453,-0.2514,-0.2512,-0.251,-0.2509,0,0,0,0,0,0,0,-0.2471,-0.2476,-0.2526,-0.2549,-0.2552,-0.2527,-0.2533,-0.2487,-0.2539,-0.2571,-0.2576,-0.2577,-0.2537,-0.253,-0.2525,-0.2452,-0.2515,-0.2511,-0.2508,-0.2507,-0.234,-0.2338,0,0,0,0,0,0,-0.2477,-0.2475,-0.2526,-0.2526,-0.2519,-0.2527,-0.2534,-0.2553,-0.2541,-0.2542,-0.2575,-0.2579,-0.2536,-0.253,-0.2524,-0.2461,-0.251,-0.2506,-0.2504,-0.2342,-0.234,-0.2338,0,0,0,0,0,0,-0.2475,-0.2482,-0.2526,-0.25,-0.2504,-0.2527,-0.2548,-0.2552,-0.2553,-0.2544,-0.2544,-0.2572,-0.2538,-0.253,-0.2494,-0.2458,-0.2504,-0.2501,-0.2344,-0.2341,-0.2339,-0.2321,0,0,0,0,0,0,-0.2474,-0.2482,-0.2488,-0.2501,-0.2506,-0.2513,-0.2546,-0.2551,-0.255,-0.2556,-0.254,-0.2538,-0.2539,-0.25,-0.249,-0.2454,-0.2497,-0.2347,-0.2343,-0.234,-0.2324,-0.2317,-0.2312,0,0,0,0,0,-0.2471,-0.2471,-0.2488,-0.2494,-0.2518,-0.2513,-0.2512,-0.2534,-0.2548,-0.2543,-0.2538,-0.2539,-0.247,-0.2495,-0.2484,-0.2445,-0.2349,-0.2344,-0.234,-0.2326,-0.2319,-0.2312,0,0,0,0,0,0,-0.244,-0.2477,-0.2496,-0.2508,-0.2513,-0.2523,-0.2513,-0.2525,-0.2515,-0.2516,-0.2516,-0.2512,-0.2467,-0.2451,-0.2479,-0.2385,-0.2406,-0.24,-0.24,-0.2392,-0.2387,-0.2367,-0.2494,0,0,0,0,0,-0.2436,-0.2445,-0.2474,-0.2475,-0.2482,-0.2493,-0.249,-0.2504,-0.25,-0.25,-0.2494,-0.247,-0.2434,-0.2414,-0.2385,-0.2326,-0.2315,-0.2291,-0.2285,-0.2281,-0.2255,-0.2212,-0.2201,-0.2323,-0.2323,-0.2324,0,0,-0.2415,-0.2439,-0.244,-0.2467,-0.2473,-0.2467,-0.2497,-0.2489,-0.2473,-0.2489,-0.2461,-0.2449,-0.2415,-0.2366,-0.2341,-0.2351,-0.2245,-0.2275,-0.2272,-0.2248,-0.2206,-0.2195,-0.2184,-0.232,-0.2321,-0.2321,0,0,-0.2372,-0.2409,-0.2401,-0.2411,-0.2423,-0.2433,-0.243,-0.2441,-0.2441,-0.2411,-0.2416,-0.2377,-0.2339,-0.2301,-0.2276,-0.2207,-0.2219,-0.2207,-0.2156,-0.2115,-0.2105,-0.2096,-0.2096,-0.2087,-0.22,-0.22,-0.22,0,-0.2344,-0.2354,-0.2391,-0.2389,-0.2387,-0.2418,-0.24,-0.2394,-0.2389,-0.2371,-0.2401,-0.2322,-0.2296,-0.2213,-0.2198,-0.2191,-0.2196,-0.2193,-0.211,-0.21,-0.2091,-0.2092,-0.2082,-0.2199,-0.2199,-0.2199,-0.2199,0,-0.2299,-0.2308,-0.23,-0.2317,-0.2319,-0.2304,-0.2318,-0.2307,-0.2315,-0.2309,-0.2252,-0.2226,-0.218,-0.2162,-0.2159,-0.2072,-0.2109,-0.2116,-0.2134,-0.2078,-0.2083,-0.2073,-0.2197,-0.2197,-0.2197,-0.2198,0,0,-0.2223,-0.2262,-0.2257,-0.2264,-0.2281,-0.2278,-0.2249,-0.2228,-0.2211,-0.2193,-0.2156,-0.208,-0.2085,-0.2053,-0.2043,-0.1998,-0.1947,-0.2031,-0.203,-0.2043,-0.1897,-0.1915,-0.1906,-0.1959,-0.1956,-0.1954,-0.1939,0,-0.217,-0.2163,-0.219,-0.2167,-0.2166,-0.219,-0.217,-0.2154,-0.2152,-0.2129,-0.2078,-0.2045,-0.2039,-0.2029,-0.1976,-0.1959,-0.1915,-0.1952,-0.1937,-0.1936,-0.1968,-0.1892,-0.1878,-0.1861,-0.1929,-0.1928,-0.1926,0,-0.2107,-0.212,-0.21,-0.212,-0.212,-0.2108,-0.2095,-0.208,-0.2052,-0.2055,-0.2008,-0.2003,-0.1919,-0.194,-0.1853,-0.1891,-0.1876,-0.1865,-0.1865,-0.1871,-0.1933,-0.1919,-0.1841,-0.1763,-0.1911,-0.1913,-0.1914,0,-0.2042,-0.2049,-0.2036,-0.2041,-0.2069,-0.2051,-0.2054,-0.2044,-0.2039,-0.2005,-0.201,-0.1933,-0.1911,-0.1857,-0.1838,-0.1849,-0.1775,-0.1788,-0.1784,-0.1788,-0.176,-0.1765,-0.1605,-0.1705,-0.1705,-0.1705,-0.1705,0,-0.198,-0.1966,-0.2009,-0.2004,-0.1993,-0.2015,-0.1996,-0.1998,-0.1994,-0.1987,-0.1967,-0.1954,-0.1892,-0.1859,-0.1827,-0.1782,-0.1763,-0.1747,-0.1762,-0.1758,-0.1762,-0.1683,-0.1605,-0.1705,-0.1705,-0.1705,-0.1705,0,-0.1908,-0.1937,-0.1932,-0.1959,-0.1968,-0.1958,-0.1984,-0.1973,-0.1983,-0.1976,-0.1967,-0.1957,-0.1909,-0.1864,-0.1795,-0.1779,-0.1672,-0.1722,-0.1742,-0.1758,-0.1667,-0.1589,-0.1434,-0.1392,-0.1691,-0.1691,-0.1691,0,-0.1874,-0.1864,-0.1901,-0.191,-0.1921,-0.1923,-0.1931,-0.1959,-0.1965,-0.1981,-0.1978,-0.1942,-0.1917,-0.1843,-0.1803,-0.1745,-0.1649,-0.1698,-0.1676,-0.1625,-0.155,-0.153,-0.1505,-0.1652,-0.1652,-0.1652,-0.1651,0,-0.1801,-0.1815,-0.1815,-0.1849,-0.1863,-0.1892,-0.1908,-0.1925,-0.1959,-0.1973,-0.1989,-0.1968,-0.1912,-0.185,-0.1787,-0.1739,-0.1607,-0.1691,-0.1606,-0.1454,-0.1448,-0.1431,-0.1736,-0.1649,-0.1649,-0.1649,-0.1649,-0.165,-0.1735,-0.1725,-0.1741,-0.1766,-0.1804,-0.1854,-0.1856,-0.1897,-0.1929,-0.1938,-0.1962,-0.1924,-0.1871,-0.178,-0.1734,-0.1627,-0.1583,-0.1541,-0.1443,-0.1427,-0.1379,-0.1694,-0.1645,-0.1646,-0.1646,-0.1646,-0.1646,0,-0.1643,-0.1645,-0.1661,-0.17,-0.1732,-0.1781,-0.1834,-0.1831,-0.1862,-0.1888,-0.1888,-0.1851,-0.1755,-0.1681,-0.1573,-0.142,-0.1402,-0.1296,-0.1234,-0.1215,-0.1469,-0.1461,-0.1407,-0.1407,-0.1407,-0.1407,-0.1407,-0.1407,-0.1592,-0.1561,-0.158,-0.1613,-0.1656,-0.168,-0.1706,-0.1712,-0.1731,-0.1733,-0.1733,-0.173,-0.1547,-0.1378,-0.1186,-0.1148,-0.1017,-0.0971,-0.0916,-0.106,-0.1076,-0.1091,-0.1068,-0.0931,-0.093,-0.0726,-0.0723,-0.0721]},{"header":{"parameterUnit":"m.s-1","parameterCategory":2,"la1":30.2991,"la2":30.254,"lo1":-89.0895,"lo2":-89.0444,"dy":0.0017,"dx":0.0017,"nx":28,"ny":28,"refTime":"2024-08-09T03:00:00:Z","depth":"0","parameterNumber":3,"parameterNumberName":"V-component_of_CURRENTS"},"data":[0,0,0,0,0,0,0,0,0,0,0,0,0,0,0,0,0,0,0,0,0,0,0,0,0,0,0,0,0,0,0,0,0,0,0,0,0,0,0,0,0,0,0,0,0,0,0,0,0,0,0,0,0,0,0,0,0,0,-0.0991,-0.099,0,-0.0949,-0.0949,-0.0948,-0.0993,-0.0994,-0.0996,-0.0997,-0.0947,-0.0945,-0.0942,0,0,0,0,0,0,0,0,0,0,0,0,0,-0.1079,-0.1077,-0.0991,-0.099,-0.0989,-0.0949,-0.0949,-0.0948,-0.0992,-0.0994,-0.0996,-0.0998,-0.0948,-0.0945,-0.0942,0,0,0,0,0,0,0,0,0,0,0,0,0,-0.104,-0.1076,-0.0991,-0.1006,-0.1007,-0.0949,-0.0949,-0.0948,-0.0992,-0.0994,-0.0997,-0.0999,-0.0949,-0.0945,-0.0941,-0.0867,0,0,-0.0928,-0.0926,0,0,0,0,0,0,0,0,-0.1042,-0.1037,-0.1004,-0.1005,-0.1005,-0.0977,-0.0961,-0.092,-0.0991,-0.0999,-0.0997,-0.1,-0.0954,-0.0949,-0.0938,-0.0865,-0.0863,-0.0928,-0.0925,-0.0923,-0.0922,0,0,0,0,0,0,0,-0.1045,-0.1039,-0.0976,-0.1003,-0.1004,-0.1004,-0.1002,-0.0954,-0.0964,-0.0998,-0.1001,-0.0994,-0.0955,-0.0942,-0.0937,-0.0862,-0.0928,-0.0924,-0.0922,-0.092,-0.0683,-0.068,0,0,0,0,0,0,-0.1046,-0.1041,-0.0977,-0.0974,-0.1029,-0.1001,-0.0998,-0.0985,-0.0965,-0.0964,-0.0992,-0.0996,-0.0948,-0.0942,-0.0936,-0.0845,-0.0923,-0.0919,-0.0917,-0.0687,-0.0683,-0.0679,0,0,0,0,0,0,-0.1048,-0.104,-0.0978,-0.1007,-0.0999,-0.0997,-0.0982,-0.0983,-0.0978,-0.096,-0.096,-0.0987,-0.095,-0.0942,-0.0892,-0.0844,-0.0918,-0.0914,-0.0692,-0.0686,-0.0681,-0.0666,0,0,0,0,0,0,-0.1051,-0.1041,-0.1029,-0.1006,-0.0997,-0.0943,-0.0979,-0.098,-0.0969,-0.0974,-0.0955,-0.0953,-0.0951,-0.0898,-0.0888,-0.084,-0.091,-0.0696,-0.0689,-0.0682,-0.0671,-0.066,-0.0651,0,0,0,0,0,-0.1054,-0.1025,-0.1028,-0.102,-0.0981,-0.0942,-0.0936,-0.0945,-0.0966,-0.0952,-0.0941,-0.0954,-0.0845,-0.0893,-0.0881,-0.0831,-0.07,-0.0691,-0.0683,-0.0675,-0.0662,-0.0651,0,0,0,0,0,0,-0.1049,-0.1026,-0.1029,-0.0994,-0.097,-0.0949,-0.0932,-0.0937,-0.0915,-0.0923,-0.0919,-0.0914,-0.0846,-0.0827,-0.0879,-0.0733,-0.0767,-0.0756,-0.0765,-0.0752,-0.0743,-0.0772,-0.0907,0,0,0,0,0,-0.1041,-0.1019,-0.0995,-0.0964,-0.0953,-0.0941,-0.0926,-0.0929,-0.0908,-0.0903,-0.0883,-0.0846,-0.0794,-0.0772,-0.0724,-0.0651,-0.067,-0.0601,-0.0591,-0.0583,-0.0593,-0.0577,-0.0569,-0.0651,-0.0651,-0.0651,0,0,-0.1028,-0.1013,-0.0999,-0.0962,-0.0947,-0.0909,-0.0939,-0.091,-0.0879,-0.0895,-0.0841,-0.0812,-0.0765,-0.069,-0.0655,-0.0676,-0.0565,-0.0572,-0.0567,-0.0581,-0.0568,-0.0561,-0.0555,-0.0645,-0.0646,-0.0647,0,0,-0.0987,-0.0979,-0.0948,-0.0923,-0.0895,-0.0884,-0.0875,-0.0845,-0.0838,-0.0777,-0.0775,-0.0727,-0.0644,-0.0611,-0.0581,-0.0478,-0.0514,-0.0443,-0.0424,-0.0408,-0.0403,-0.0399,-0.042,-0.0419,-0.044,-0.044,-0.044,0,-0.0975,-0.0937,-0.093,-0.089,-0.0869,-0.087,-0.0831,-0.0805,-0.0761,-0.0751,-0.0755,-0.0646,-0.0605,-0.0532,-0.0492,-0.046,-0.0477,-0.0487,-0.0403,-0.0399,-0.0395,-0.0418,-0.0416,-0.0438,-0.0438,-0.0439,-0.0439,0,-0.0914,-0.0882,-0.0858,-0.0815,-0.0785,-0.0753,-0.0722,-0.0694,-0.0685,-0.0669,-0.0604,-0.0555,-0.0507,-0.0458,-0.0444,-0.0377,-0.0407,-0.04,-0.0455,-0.0388,-0.0414,-0.0413,-0.0436,-0.0436,-0.0437,-0.0437,0,0,-0.0904,-0.0834,-0.0828,-0.0812,-0.0752,-0.0734,-0.0668,-0.0633,-0.0627,-0.0566,-0.0549,-0.0437,-0.0449,-0.0413,-0.0386,-0.0357,-0.0333,-0.0367,-0.0367,-0.0428,-0.0334,-0.0432,-0.0441,-0.0326,-0.0325,-0.0324,-0.0369,0,-0.0869,-0.081,-0.0768,-0.0711,-0.0689,-0.0657,-0.0609,-0.0575,-0.0555,-0.0534,-0.0489,-0.0454,-0.042,-0.0411,-0.0371,-0.0343,-0.0326,-0.0324,-0.0355,-0.0356,-0.0485,-0.0441,-0.0437,-0.0483,-0.0368,-0.0368,-0.0367,0,-0.0833,-0.0809,-0.0753,-0.0705,-0.0691,-0.065,-0.0624,-0.0578,-0.054,-0.0526,-0.0492,-0.0477,-0.0418,-0.0406,-0.0349,-0.0357,-0.0342,-0.0324,-0.0326,-0.0428,-0.0452,-0.0523,-0.0485,-0.0369,-0.0366,-0.0366,-0.0366,0,-0.0878,-0.0803,-0.0775,-0.0751,-0.0684,-0.0661,-0.0633,-0.0589,-0.0577,-0.0541,-0.0548,-0.0484,-0.0474,-0.0427,-0.0387,-0.0372,-0.0354,-0.033,-0.041,-0.0418,-0.0426,-0.0437,-0.0315,-0.0299,-0.0299,-0.0299,-0.0298,0,-0.0868,-0.0844,-0.0804,-0.0788,-0.0778,-0.0711,-0.07,-0.0662,-0.0628,-0.0635,-0.0568,-0.0573,-0.0479,-0.0461,-0.0412,-0.0427,-0.0378,-0.0416,-0.0432,-0.042,-0.0429,-0.034,-0.0277,-0.03,-0.03,-0.03,-0.0299,0,-0.089,-0.086,-0.084,-0.0799,-0.0794,-0.0791,-0.0754,-0.0759,-0.071,-0.072,-0.0714,-0.0647,-0.0625,-0.0561,-0.0498,-0.0489,-0.0429,-0.0486,-0.0503,-0.0521,-0.0509,-0.0447,-0.0388,-0.0351,-0.0589,-0.0591,-0.0594,0,-0.0881,-0.0877,-0.0875,-0.0896,-0.0873,-0.0868,-0.0874,-0.0815,-0.0821,-0.0778,-0.0797,-0.0767,-0.0765,-0.0726,-0.0683,-0.0656,-0.0516,-0.0649,-0.0608,-0.0518,-0.0458,-0.0393,-0.0359,-0.0604,-0.0607,-0.0608,-0.061,0,-0.0876,-0.0889,-0.0887,-0.0951,-0.0973,-0.0989,-0.099,-0.1002,-0.0948,-0.0954,-0.0953,-0.0942,-0.0905,-0.0883,-0.0854,-0.08,-0.0573,-0.0691,-0.0556,-0.0439,-0.0396,-0.0366,-0.0587,-0.0625,-0.0624,-0.0623,-0.0622,-0.0621,-0.0884,-0.0907,-0.0946,-0.1004,-0.1051,-0.1107,-0.1127,-0.1141,-0.116,-0.1168,-0.1117,-0.1118,-0.1019,-0.098,-0.0925,-0.076,-0.0725,-0.0674,-0.0604,-0.0546,-0.0507,-0.0807,-0.0892,-0.0892,-0.0892,-0.0892,-0.0892,0,-0.089,-0.0938,-0.1,-0.1084,-0.1168,-0.1167,-0.1208,-0.1235,-0.1288,-0.1294,-0.1306,-0.1197,-0.1136,-0.0975,-0.0787,-0.067,-0.0569,-0.0548,-0.0381,-0.035,-0.0572,-0.0569,-0.0636,-0.0636,-0.0637,-0.0637,-0.0637,-0.0637,-0.0897,-0.0964,-0.1015,-0.1175,-0.1241,-0.1321,-0.1345,-0.1391,-0.1403,-0.1383,-0.1323,-0.1203,-0.0836,-0.0642,-0.0414,-0.0387,-0.0212,-0.0231,-0.0154,-0.022,-0.0223,-0.0225,-0.0203,-0.0193,-0.0193,0.0084,0.0086,0.0089]}],[{"header":{"parameterUnit":"m.s-1","parameterCategory":2,"la1":30.2991,"la2":30.254,"lo1":-89.0895,"lo2":-89.0444,"dy":0.0017,"dx":0.0017,"nx":28,"ny":28,"refTime":"2024-08-09T03:00:00:Z","depth":"2","parameterNumber":2,"parameterNumberName":"U-component_of_CURRENTS"},"data":[0,0,0,0,0,0,0,0,0,0,0,0,0,0,0,0,0,0,0,0,0,0,0,0,0,0,0,0,0,0,0,0,0,0,0,0,0,0,0,0,0,0,0,0,0,0,0,0,0,0,0,0,0,0,0,0,0,0,-0.2185,-0.2185,0,-0.219,-0.2189,-0.2189,-0.2217,-0.2218,-0.2219,-0.2221,-0.2212,-0.221,-0.2209,0,0,0,0,0,0,0,0,0,0,0,0,0,-0.2061,-0.2064,-0.2185,-0.2185,-0.2186,-0.219,-0.2189,-0.2189,-0.2217,-0.2218,-0.222,-0.2221,-0.2212,-0.221,-0.2209,0,0,0,0,0,0,0,0,0,0,0,0,0,-0.2091,-0.2065,-0.2185,-0.2204,-0.2206,-0.219,-0.2189,-0.2189,-0.2217,-0.2218,-0.222,-0.2222,-0.2212,-0.2211,-0.2209,-0.2164,0,0,-0.2203,-0.2202,0,0,0,0,0,0,0,0,-0.209,-0.2095,-0.22,-0.2202,-0.2205,-0.2209,-0.2143,-0.2181,-0.2216,-0.2208,-0.2221,-0.2222,-0.2211,-0.2209,-0.22,-0.2163,-0.2163,-0.2203,-0.2202,-0.2201,-0.22,0,0,0,0,0,0,0,-0.2088,-0.2094,-0.2182,-0.2201,-0.2204,-0.2165,-0.2172,-0.2149,-0.2196,-0.2209,-0.2212,-0.2219,-0.2212,-0.2202,-0.22,-0.2163,-0.2203,-0.2201,-0.22,-0.2199,-0.2127,-0.2126,0,0,0,0,0,0,-0.2102,-0.2093,-0.2182,-0.2183,-0.2155,-0.2167,-0.2174,-0.2202,-0.2197,-0.2199,-0.2218,-0.2221,-0.2204,-0.2202,-0.22,-0.218,-0.2201,-0.2199,-0.2198,-0.2128,-0.2127,-0.2126,0,0,0,0,0,0,-0.21,-0.2111,-0.2182,-0.214,-0.2147,-0.2169,-0.2198,-0.2201,-0.2218,-0.2205,-0.2206,-0.2236,-0.2206,-0.2203,-0.2198,-0.2179,-0.2198,-0.2196,-0.2129,-0.2128,-0.2126,-0.2119,0,0,0,0,0,0,-0.2097,-0.211,-0.2133,-0.2142,-0.215,-0.219,-0.2198,-0.22,-0.2221,-0.2225,-0.222,-0.2219,-0.2207,-0.2201,-0.2196,-0.2177,-0.2195,-0.213,-0.2128,-0.2127,-0.212,-0.2118,-0.2116,0,0,0,0,0,-0.2093,-0.2121,-0.2134,-0.2145,-0.2182,-0.219,-0.219,-0.2206,-0.222,-0.2226,-0.2224,-0.2221,-0.2188,-0.2199,-0.2194,-0.2173,-0.213,-0.2129,-0.2127,-0.2121,-0.2118,-0.2116,0,0,0,0,0,0,-0.2088,-0.2127,-0.2142,-0.2185,-0.2195,-0.2198,-0.2198,-0.2216,-0.2217,-0.2217,-0.2215,-0.2213,-0.2198,-0.2188,-0.2201,-0.2148,-0.2156,-0.2154,-0.2154,-0.2151,-0.2149,-0.2112,-0.2193,0,0,0,0,0,-0.2095,-0.2126,-0.2149,-0.2184,-0.2183,-0.2192,-0.2198,-0.2209,-0.2212,-0.2216,-0.2212,-0.2198,-0.2179,-0.2172,-0.2152,-0.2126,-0.2075,-0.2107,-0.2105,-0.2103,-0.2069,-0.1985,-0.1971,-0.212,-0.212,-0.212,0,0,-0.2101,-0.2129,-0.2146,-0.2183,-0.2182,-0.2175,-0.2199,-0.2206,-0.2203,-0.2211,-0.2198,-0.2191,-0.2172,-0.2142,-0.2134,-0.2137,-0.2037,-0.2101,-0.21,-0.2066,-0.1982,-0.1967,-0.1954,-0.2119,-0.2119,-0.212,0,0,-0.2102,-0.2149,-0.2153,-0.2165,-0.2175,-0.2174,-0.2184,-0.2188,-0.2191,-0.2184,-0.218,-0.2152,-0.2146,-0.2103,-0.2088,-0.2055,-0.203,-0.2074,-0.2028,-0.1949,-0.1935,-0.1922,-0.1848,-0.1829,-0.2071,-0.2071,-0.2071,0,-0.2097,-0.2123,-0.2154,-0.2155,-0.2154,-0.2176,-0.2161,-0.2164,-0.217,-0.2153,-0.2181,-0.2122,-0.2107,-0.2044,-0.2037,-0.2043,-0.2011,-0.2046,-0.1944,-0.193,-0.1917,-0.1843,-0.1822,-0.207,-0.207,-0.207,-0.207,0,-0.2081,-0.2109,-0.2109,-0.2116,-0.2121,-0.2116,-0.2122,-0.212,-0.2128,-0.212,-0.2078,-0.2053,-0.2013,-0.201,-0.2016,-0.1923,-0.1934,-0.1954,-0.1949,-0.1901,-0.1828,-0.1805,-0.2069,-0.207,-0.207,-0.207,0,0,-0.2033,-0.2083,-0.2082,-0.208,-0.2098,-0.2091,-0.2084,-0.2059,-0.2035,-0.2035,-0.1979,-0.1945,-0.1936,-0.1915,-0.1912,-0.1841,-0.1727,-0.1867,-0.1863,-0.1788,-0.1561,-0.164,-0.1624,-0.1749,-0.1745,-0.1742,-0.1549,0,-0.1993,-0.1995,-0.2027,-0.2011,-0.2002,-0.2024,-0.2013,-0.2003,-0.1992,-0.1945,-0.1907,-0.1865,-0.1904,-0.1882,-0.1817,-0.1745,-0.1668,-0.1777,-0.162,-0.1614,-0.1687,-0.16,-0.1423,-0.1243,-0.1527,-0.1523,-0.1521,0,-0.1941,-0.1956,-0.1942,-0.1957,-0.1949,-0.1948,-0.1913,-0.191,-0.1868,-0.1861,-0.1817,-0.1795,-0.1693,-0.1737,-0.1573,-0.1655,-0.1598,-0.1545,-0.1537,-0.1589,-0.1652,-0.1334,-0.1192,-0.1483,-0.1486,-0.1489,-0.1492,0,-0.1866,-0.1885,-0.1872,-0.188,-0.1901,-0.1892,-0.1897,-0.1878,-0.1835,-0.1804,-0.1745,-0.1678,-0.16,-0.1529,-0.1468,-0.1505,-0.1288,-0.1319,-0.1327,-0.1332,-0.1133,-0.1129,-0.1175,-0.1176,-0.1176,-0.1177,-0.1177,0,-0.1799,-0.1787,-0.1845,-0.1839,-0.1806,-0.185,-0.1793,-0.1809,-0.1757,-0.1674,-0.1697,-0.1599,-0.1543,-0.1439,-0.1406,-0.1308,-0.124,-0.1276,-0.1273,-0.1132,-0.1131,-0.1308,-0.1326,-0.1169,-0.1171,-0.1172,-0.1174,0,-0.1719,-0.1753,-0.1743,-0.1775,-0.1777,-0.1761,-0.1729,-0.1668,-0.1677,-0.1559,-0.1537,-0.1471,-0.1377,-0.1338,-0.1196,-0.1207,-0.1125,-0.1116,-0.0976,-0.0963,-0.1224,-0.1244,-0.1044,-0.1045,-0.1046,-0.1046,-0.1047,0,-0.1678,-0.1674,-0.1698,-0.167,-0.1683,-0.1663,-0.162,-0.1629,-0.1558,-0.1474,-0.1384,-0.1294,-0.1219,-0.1095,-0.1112,-0.1066,-0.1095,-0.0873,-0.0911,-0.1186,-0.1202,-0.1222,-0.124,-0.0618,-0.0615,-0.0612,-0.061,0,-0.1597,-0.1615,-0.1601,-0.1579,-0.1536,-0.1481,-0.1439,-0.1377,-0.136,-0.1279,-0.1172,-0.1115,-0.1046,-0.0956,-0.0977,-0.0912,-0.0882,-0.0829,-0.1055,-0.075,-0.0788,-0.0806,-0.0835,-0.0588,-0.059,-0.0592,-0.0593,-0.0594,-0.1523,-0.1504,-0.15,-0.146,-0.1405,-0.1337,-0.1283,-0.1246,-0.1164,-0.1109,-0.1051,-0.0996,-0.0861,-0.0894,-0.0805,-0.0763,-0.084,-0.0707,-0.071,-0.0717,-0.0773,-0.0818,-0.0631,-0.0634,-0.0636,-0.0637,-0.0639,0,-0.1423,-0.142,-0.1377,-0.1326,-0.1231,-0.1257,-0.1166,-0.1103,-0.1048,-0.1066,-0.1032,-0.0813,-0.0743,-0.0673,-0.0612,-0.0576,-0.0515,-0.0469,-0.0359,-0.0378,-0.0395,-0.0435,-0.0203,-0.0203,-0.0203,-0.0203,0,0,-0.1364,-0.1298,-0.1292,-0.1165,-0.1139,-0.1042,-0.0999,-0.0937,-0.0941,-0.0915,-0.0928,-0.0973,-0.0792,-0.0633,-0.0459,-0.0371,-0.0404,-0.0314,-0.0645,-0.0545,-0.0566,-0.0484,-0.0562,0,0,0,0,0]},{"header":{"parameterUnit":"m.s-1","parameterCategory":2,"la1":30.2991,"la2":30.254,"lo1":-89.0895,"lo2":-89.0444,"dy":0.0017,"dx":0.0017,"nx":28,"ny":28,"refTime":"2024-08-09T03:00:00:Z","depth":"2","parameterNumber":3,"parameterNumberName":"V-component_of_CURRENTS"},"data":[0,0,0,0,0,0,0,0,0,0,0,0,0,0,0,0,0,0,0,0,0,0,0,0,0,0,0,0,0,0,0,0,0,0,0,0,0,0,0,0,0,0,0,0,0,0,0,0,0,0,0,0,0,0,0,0,0,0,-0.0258,-0.0258,0,-0.0129,-0.0126,-0.0124,-0.0089,-0.0091,-0.0093,-0.0095,-0.0172,-0.0171,-0.0171,0,0,0,0,0,0,0,0,0,0,0,0,0,-0.0191,-0.0193,-0.0258,-0.0258,-0.0258,-0.013,-0.0126,-0.0123,-0.0088,-0.0091,-0.0094,-0.0096,-0.0172,-0.0171,-0.0171,0,0,0,0,0,0,0,0,0,0,0,0,0,-0.0142,-0.0194,-0.0258,-0.0238,-0.0236,-0.013,-0.0126,-0.0122,-0.0088,-0.0091,-0.0095,-0.0098,-0.0172,-0.0171,-0.0171,-0.0102,0,0,-0.0171,-0.0171,0,0,0,0,0,0,0,0,-0.0145,-0.0142,-0.0241,-0.0239,-0.0237,-0.0143,-0.0131,-0.0131,-0.0087,-0.0126,-0.0095,-0.0099,-0.019,-0.0188,-0.0129,-0.0105,-0.0108,-0.0171,-0.0171,-0.0171,-0.0171,0,0,0,0,0,0,0,-0.0149,-0.0146,-0.019,-0.0241,-0.0239,-0.0139,-0.0136,-0.0127,-0.0131,-0.0123,-0.0124,-0.0135,-0.0188,-0.0129,-0.0132,-0.011,-0.0171,-0.0171,-0.0171,-0.0171,-0.02,-0.0201,0,0,0,0,0,0,-0.021,-0.0151,-0.0195,-0.0188,-0.0217,-0.014,-0.0136,-0.0156,-0.0127,-0.0129,-0.0133,-0.0135,-0.0128,-0.0132,-0.0135,-0.0183,-0.0171,-0.017,-0.017,-0.0199,-0.02,-0.0201,0,0,0,0,0,0,-0.0209,-0.0215,-0.02,-0.0179,-0.0173,-0.0141,-0.0161,-0.0152,-0.0156,-0.0135,-0.0138,-0.0157,-0.0131,-0.0135,-0.0185,-0.0182,-0.017,-0.017,-0.0198,-0.02,-0.0201,-0.0196,0,0,0,0,0,0,-0.0207,-0.0215,-0.0245,-0.0184,-0.0177,-0.0189,-0.016,-0.0148,-0.0163,-0.0165,-0.0156,-0.0162,-0.0134,-0.0185,-0.0185,-0.0181,-0.017,-0.0197,-0.0199,-0.02,-0.0195,-0.0197,-0.0198,0,0,0,0,0,-0.0205,-0.0247,-0.0248,-0.0254,-0.0222,-0.0192,-0.0177,-0.0152,-0.0162,-0.0165,-0.0171,-0.0165,-0.0195,-0.0186,-0.0185,-0.0182,-0.0196,-0.0198,-0.02,-0.0194,-0.0196,-0.0198,0,0,0,0,0,0,-0.0247,-0.0246,-0.0246,-0.0291,-0.0269,-0.0194,-0.0182,-0.0184,-0.0175,-0.0187,-0.0177,-0.0183,-0.0216,-0.0214,-0.0204,-0.0199,-0.0194,-0.0196,-0.019,-0.0192,-0.0193,-0.0188,-0.017,0,0,0,0,0,-0.0269,-0.0306,-0.0276,-0.0322,-0.0294,-0.0245,-0.0233,-0.0225,-0.0212,-0.021,-0.0208,-0.0209,-0.0204,-0.022,-0.0209,-0.0215,-0.0162,-0.0214,-0.0216,-0.0217,-0.0215,-0.0132,-0.0125,-0.0208,-0.0208,-0.0208,0,0,-0.0309,-0.0313,-0.0339,-0.0334,-0.0286,-0.0258,-0.0241,-0.0235,-0.024,-0.0223,-0.023,-0.0219,-0.0211,-0.0203,-0.0218,-0.0215,-0.0164,-0.022,-0.0221,-0.0217,-0.0133,-0.0124,-0.0117,-0.0209,-0.0209,-0.0209,0,0,-0.0368,-0.0384,-0.0401,-0.0378,-0.0349,-0.0304,-0.0327,-0.0272,-0.0268,-0.0277,-0.026,-0.0259,-0.0261,-0.0227,-0.0218,-0.0233,-0.0176,-0.0245,-0.0246,-0.0165,-0.0157,-0.0148,-0.005,-0.0033,-0.0245,-0.0245,-0.0245,0,-0.0397,-0.0429,-0.0404,-0.039,-0.0372,-0.034,-0.0324,-0.0302,-0.0294,-0.0287,-0.0302,-0.026,-0.0256,-0.0232,-0.0228,-0.0231,-0.0176,-0.0232,-0.0163,-0.0154,-0.0145,-0.0047,-0.0028,-0.0245,-0.0245,-0.0245,-0.0245,0,-0.044,-0.0462,-0.0458,-0.0429,-0.0406,-0.0396,-0.0355,-0.0351,-0.0345,-0.0322,-0.0315,-0.0282,-0.0259,-0.0252,-0.0243,-0.0189,-0.0163,-0.0169,-0.0147,-0.0136,-0.0034,-0.0014,-0.0245,-0.0245,-0.0245,-0.0245,0,0,-0.0496,-0.0484,-0.0487,-0.0471,-0.0423,-0.0403,-0.0396,-0.0358,-0.035,-0.0341,-0.0304,-0.0291,-0.027,-0.026,-0.0239,-0.0171,-0.0051,-0.015,-0.0146,-0.0034,0.0148,0.0034,0.0045,-0.0041,-0.0038,-0.0036,0.0204,0,-0.0515,-0.0521,-0.0503,-0.0496,-0.0468,-0.0424,-0.0412,-0.0393,-0.0363,-0.0319,-0.0285,-0.0255,-0.0278,-0.0253,-0.0193,-0.0072,-0.0004,-0.0114,0.0103,0.011,0.0023,0.0061,0.0131,0.0337,0.0224,0.0227,0.0229,0,-0.054,-0.0543,-0.0539,-0.0508,-0.0483,-0.048,-0.0422,-0.0414,-0.0353,-0.0325,-0.0291,-0.0254,-0.0165,-0.0181,0.0008,-0.006,0.0031,0.0118,0.0129,0.0032,0.003,0.0301,0.0378,0.0263,0.026,0.0258,0.0255,0,-0.0573,-0.056,-0.0561,-0.0551,-0.0508,-0.05,-0.0479,-0.0429,-0.0379,-0.033,-0.0258,-0.0197,-0.0108,-0.0008,0.0105,0.0088,0.0331,0.0341,0.0322,0.0318,0.0421,0.0418,0.0468,0.0468,0.0467,0.0466,0.0466,0,-0.0583,-0.0586,-0.0587,-0.0589,-0.0571,-0.0539,-0.0495,-0.0476,-0.0381,-0.0288,-0.0272,-0.0174,-0.0058,0.007,0.0155,0.0283,0.0364,0.0337,0.0367,0.042,0.0414,0.0368,0.0353,0.0475,0.0473,0.0472,0.047,0,-0.0602,-0.0603,-0.061,-0.06,-0.0588,-0.0585,-0.0489,-0.0424,-0.0378,-0.0238,-0.021,-0.0086,0.0038,0.0124,0.0327,0.036,0.0481,0.0489,0.053,0.0555,0.0425,0.0408,0.0567,0.0565,0.0564,0.0562,0.0561,0,-0.0604,-0.062,-0.0634,-0.0618,-0.0611,-0.0581,-0.0512,-0.0439,-0.0334,-0.0183,-0.0076,0.003,0.0093,0.0289,0.0348,0.0451,0.0452,0.0593,0.0539,0.0419,0.0435,0.042,0.0405,0.0731,0.0731,0.0731,0.0731,0,-0.0613,-0.0637,-0.064,-0.0629,-0.0576,-0.0471,-0.0378,-0.0293,-0.0162,-0.0089,0.0035,0.0064,0.0185,0.0304,0.0369,0.0433,0.0569,0.0593,0.0536,0.0616,0.0571,0.0584,0.0567,0.0733,0.0733,0.0733,0.0733,0.0733,-0.0621,-0.0641,-0.0654,-0.0633,-0.0537,-0.0368,-0.0288,-0.017,-0.0051,0.008,0.0102,0.0185,0.0275,0.0374,0.039,0.0459,0.0486,0.0614,0.0617,0.062,0.0516,0.0461,0.059,0.0589,0.0588,0.0587,0.0587,0,-0.062,-0.0655,-0.064,-0.0556,-0.04,-0.0377,-0.018,-0.0097,-0.0008,0.0119,0.0133,0.0238,0.0357,0.0439,0.0551,0.0547,0.0548,0.0564,0.0651,0.0654,0.0655,0.0552,0.0637,0.0635,0.0634,0.0633,0,0,-0.0618,-0.0629,-0.0639,-0.0448,-0.0367,-0.0178,-0.0089,-0.0039,0.0052,0.013,0.024,0.0313,0.0457,0.0533,0.0554,0.0631,0.0596,0.0592,0.0579,0.0684,0.0681,0.0741,0.0592,0,0,0,0,0]}],[{"header":{"parameterUnit":"m.s-1","parameterCategory":2,"la1":30.2991,"la2":30.254,"lo1":-89.0895,"lo2":-89.0444,"dy":0.0017,"dx":0.0017,"nx":28,"ny":28,"refTime":"2024-08-09T03:00:00:Z","depth":"4","parameterNumber":2,"parameterNumberName":"U-component_of_CURRENTS"},"data":[0,0,0,0,0,0,0,0,0,0,0,0,0,0,0,0,0,0,0,0,0,0,0,0,0,0,0,0,0,0,0,0,0,0,0,0,0,0,0,0,0,0,0,0,0,0,0,0,0,0,0,0,0,0,0,0,0,0,-0.0384,-0.0385,0,-0.0412,-0.0412,-0.0412,-0.0409,-0.0409,-0.0409,-0.0409,-0.0508,-0.051,-0.0513,0,0,0,0,0,0,0,0,0,0,0,0,0,-0.0346,-0.0346,-0.0384,-0.0385,-0.0385,-0.0412,-0.0412,-0.0412,-0.0409,-0.0409,-0.0409,-0.0409,-0.0507,-0.051,-0.0513,0,0,0,0,0,0,0,0,0,0,0,0,0,-0.0364,-0.0346,-0.0384,-0.0389,-0.039,-0.0412,-0.0412,-0.0412,-0.0409,-0.0409,-0.0409,-0.0409,-0.0506,-0.051,-0.0514,-0.0545,0,0,-0.0527,-0.0529,0,0,0,0,0,0,0,0,-0.0363,-0.0365,-0.0388,-0.0389,-0.039,-0.0409,-0.0435,-0.0461,-0.0409,-0.0399,-0.0409,-0.0408,-0.0484,-0.049,-0.049,-0.055,-0.0554,-0.0527,-0.053,-0.0531,-0.0533,0,0,0,0,0,0,0,-0.0362,-0.0364,-0.0392,-0.0388,-0.039,-0.0397,-0.0398,-0.044,-0.0441,-0.04,-0.04,-0.0408,-0.0484,-0.0486,-0.0493,-0.0555,-0.0527,-0.0531,-0.0533,-0.0535,-0.0671,-0.0672,0,0,0,0,0,0,-0.0364,-0.0363,-0.0391,-0.0393,-0.0379,-0.0398,-0.0399,-0.0401,-0.0439,-0.0445,-0.0408,-0.0408,-0.0479,-0.0488,-0.0496,-0.0606,-0.0531,-0.0535,-0.0538,-0.067,-0.0671,-0.0673,0,0,0,0,0,0,-0.0362,-0.0366,-0.039,-0.0381,-0.0385,-0.0399,-0.04,-0.0402,-0.0417,-0.0446,-0.0452,-0.0424,-0.0479,-0.0491,-0.0536,-0.0607,-0.0537,-0.0541,-0.0669,-0.067,-0.0672,-0.0781,0,0,0,0,0,0,-0.0361,-0.0365,-0.0362,-0.0381,-0.0386,-0.04,-0.0401,-0.0403,-0.0423,-0.0423,-0.0462,-0.0469,-0.048,-0.0529,-0.054,-0.0612,-0.0544,-0.0667,-0.067,-0.0671,-0.0776,-0.0786,-0.0795,0,0,0,0,0,-0.036,-0.0354,-0.0362,-0.0365,-0.0383,-0.0401,-0.0403,-0.041,-0.0424,-0.0424,-0.0454,-0.0469,-0.055,-0.0534,-0.0546,-0.0621,-0.0666,-0.0669,-0.0671,-0.0772,-0.0784,-0.0795,0,0,0,0,0,0,-0.0338,-0.0355,-0.0363,-0.0363,-0.0382,-0.0401,-0.0405,-0.0422,-0.0445,-0.0459,-0.0482,-0.0492,-0.0554,-0.0561,-0.0542,-0.0659,-0.0612,-0.0617,-0.0684,-0.0696,-0.0705,-0.0667,-0.0548,0,0,0,0,0,-0.0334,-0.033,-0.0356,-0.0357,-0.037,-0.0395,-0.0405,-0.0421,-0.0447,-0.0457,-0.0477,-0.0516,-0.0572,-0.0611,-0.0631,-0.0707,-0.066,-0.0759,-0.0769,-0.0777,-0.075,-0.0772,-0.0781,-0.0681,-0.0681,-0.0681,0,0,-0.0328,-0.0335,-0.0336,-0.0352,-0.037,-0.038,-0.0399,-0.0426,-0.0446,-0.0469,-0.0495,-0.054,-0.059,-0.0662,-0.0694,-0.0686,-0.077,-0.078,-0.0788,-0.0755,-0.0776,-0.0786,-0.0794,-0.0682,-0.0682,-0.0682,0,0,-0.0306,-0.0325,-0.0312,-0.033,-0.0362,-0.0382,-0.0396,-0.0425,-0.045,-0.0499,-0.0524,-0.0591,-0.0664,-0.0709,-0.0751,-0.0821,-0.0804,-0.086,-0.0909,-0.0933,-0.0941,-0.0948,-0.0857,-0.0856,-0.0887,-0.0888,-0.0888,0,-0.0298,-0.029,-0.0314,-0.0312,-0.0333,-0.0384,-0.0394,-0.0427,-0.0465,-0.0491,-0.0513,-0.0629,-0.0679,-0.0785,-0.0829,-0.0845,-0.0823,-0.0875,-0.0947,-0.0953,-0.0958,-0.0864,-0.086,-0.0893,-0.0893,-0.0892,-0.0892,0,-0.027,-0.027,-0.0273,-0.0285,-0.0307,-0.0333,-0.0388,-0.0414,-0.047,-0.0505,-0.0603,-0.068,-0.0757,-0.0812,-0.0863,-0.0955,-0.091,-0.0943,-0.0922,-0.0975,-0.0871,-0.0865,-0.0901,-0.0899,-0.0898,-0.0896,0,0,-0.0239,-0.025,-0.0249,-0.0253,-0.0308,-0.0321,-0.0369,-0.0422,-0.0459,-0.0537,-0.0592,-0.0739,-0.0802,-0.085,-0.0938,-0.0986,-0.102,-0.1012,-0.1011,-0.0923,-0.1005,-0.0926,-0.0911,-0.1103,-0.1104,-0.1105,-0.0901,0,-0.0216,-0.02,-0.0219,-0.0225,-0.0237,-0.0298,-0.033,-0.0389,-0.0468,-0.0524,-0.0648,-0.0743,-0.082,-0.0914,-0.0975,-0.1025,-0.1018,-0.1065,-0.0961,-0.0954,-0.0884,-0.0908,-0.1107,-0.0897,-0.0895,-0.0894,-0.0893,0,-0.0186,-0.0182,-0.0183,-0.0204,-0.0215,-0.0234,-0.031,-0.0348,-0.0449,-0.0519,-0.0642,-0.074,-0.0868,-0.092,-0.0984,-0.103,-0.1011,-0.1013,-0.1007,-0.0887,-0.0868,-0.0841,-0.0882,-0.0883,-0.0884,-0.0885,-0.0885,0,-0.016,-0.0157,-0.016,-0.0172,-0.0206,-0.0231,-0.0263,-0.0351,-0.0392,-0.0539,-0.0596,-0.0743,-0.0821,-0.0881,-0.0933,-0.0986,-0.0924,-0.0986,-0.0842,-0.0831,-0.0913,-0.0908,-0.0948,-0.0948,-0.0948,-0.0949,-0.0949,0,-0.0138,-0.0133,-0.0149,-0.0155,-0.0171,-0.0209,-0.0254,-0.0313,-0.0396,-0.0426,-0.0614,-0.0657,-0.0831,-0.0846,-0.0887,-0.0834,-0.0882,-0.0814,-0.0793,-0.0954,-0.0957,-0.0905,-0.0903,-0.0941,-0.0943,-0.0944,-0.0946,0,-0.0113,-0.0122,-0.0121,-0.0147,-0.0164,-0.0182,-0.0235,-0.0257,-0.0355,-0.0404,-0.0465,-0.0583,-0.0616,-0.0695,-0.0722,-0.0733,-0.0716,-0.0652,-0.0722,-0.0712,-0.0598,-0.0603,-0.049,-0.0486,-0.0482,-0.048,-0.0477,0,-0.0099,-0.0098,-0.0115,-0.0115,-0.0133,-0.0163,-0.0181,-0.0254,-0.0276,-0.0331,-0.0339,-0.039,-0.0466,-0.0419,-0.0505,-0.0508,-0.0517,-0.0475,-0.0636,-0.0569,-0.056,-0.0571,-0.0581,-0.0472,-0.0471,-0.047,-0.0469,0,-0.0081,-0.009,-0.0087,-0.0091,-0.0106,-0.0105,-0.0134,-0.015,-0.0203,-0.0261,-0.0254,-0.0298,-0.0268,-0.0336,-0.0321,-0.0337,-0.0533,-0.044,-0.0449,-0.0601,-0.0546,-0.0542,-0.0556,-0.0457,-0.0459,-0.046,-0.0461,0,-0.0072,-0.0065,-0.0066,-0.0066,-0.006,-0.0055,-0.0082,-0.0089,-0.0119,-0.0188,-0.0135,-0.0188,-0.021,-0.0228,-0.0218,-0.0246,-0.0278,-0.0324,-0.034,-0.0354,-0.0422,-0.034,-0.0146,0,0,0,0,0,-0.0062,-0.005,-0.0039,-0.0032,-0.0007,-0.0013,-0.004,-0.0066,-0.0106,-0.0091,-0.0129,-0.0115,-0.013,-0.0139,-0.0148,-0.0157,-0.0278,-0.0166,-0.0339,-0.0391,-0.0405,-0.051,0,0,0,0,0,0,-0.0056,-0.0046,-0.0037,0.0006,0.003,0.0043,0.0023,-0.0006,-0.0019,-0.0056,-0.0073,-0.0086,-0.0112,-0.0111,-0.0132,-0.0137,-0.0244,-0.018,-0.0179,-0.0383,-0.0396,-0.0407,-0.052,0,0,0,0,0]},{"header":{"parameterUnit":"m.s-1","parameterCategory":2,"la1":30.2991,"la2":30.254,"lo1":-89.0895,"lo2":-89.0444,"dy":0.0017,"dx":0.0017,"nx":28,"ny":28,"refTime":"2024-08-09T03:00:00:Z","depth":"4","parameterNumber":3,"parameterNumberName":"V-component_of_CURRENTS"},"data":[0,0,0,0,0,0,0,0,0,0,0,0,0,0,0,0,0,0,0,0,0,0,0,0,0,0,0,0,0,0,0,0,0,0,0,0,0,0,0,0,0,0,0,0,0,0,0,0,0,0,0,0,0,0,0,0,0,0,-0.0304,-0.0304,0,-0.0379,-0.038,-0.0381,-0.0356,-0.0354,-0.0352,-0.0351,-0.0354,-0.0356,-0.0358,0,0,0,0,0,0,0,0,0,0,0,0,0,-0.0181,-0.0184,-0.0304,-0.0304,-0.0305,-0.0378,-0.038,-0.0381,-0.0357,-0.0354,-0.0352,-0.035,-0.0353,-0.0356,-0.0358,0,0,0,0,0,0,0,0,0,0,0,0,0,-0.0247,-0.0185,-0.0304,-0.0299,-0.0299,-0.0378,-0.038,-0.0381,-0.0357,-0.0354,-0.0351,-0.0349,-0.0353,-0.0355,-0.0358,-0.0434,0,0,-0.0367,-0.0368,0,0,0,0,0,0,0,0,-0.0243,-0.0251,-0.0299,-0.0299,-0.03,-0.0352,-0.0338,-0.0394,-0.0358,-0.0339,-0.035,-0.0347,-0.0347,-0.035,-0.0376,-0.0434,-0.0434,-0.0367,-0.0369,-0.037,-0.0371,0,0,0,0,0,0,0,-0.0238,-0.0248,-0.0337,-0.03,-0.03,-0.0307,-0.0313,-0.0349,-0.036,-0.034,-0.0338,-0.0341,-0.0346,-0.0374,-0.0376,-0.0434,-0.0367,-0.037,-0.0371,-0.0373,-0.0515,-0.0517,0,0,0,0,0,0,-0.0224,-0.0244,-0.0334,-0.0339,-0.0259,-0.0311,-0.0318,-0.0341,-0.0361,-0.036,-0.0344,-0.034,-0.037,-0.0373,-0.0376,-0.0435,-0.037,-0.0373,-0.0374,-0.0513,-0.0515,-0.0517,0,0,0,0,0,0,-0.0221,-0.0232,-0.0331,-0.0289,-0.0301,-0.0316,-0.0342,-0.0344,-0.0367,-0.0363,-0.0362,-0.0363,-0.0368,-0.0372,-0.0409,-0.0436,-0.0374,-0.0377,-0.051,-0.0514,-0.0516,-0.0574,0,0,0,0,0,0,-0.0218,-0.0231,-0.0252,-0.0289,-0.0303,-0.0376,-0.0345,-0.0347,-0.0372,-0.0368,-0.038,-0.0378,-0.0366,-0.0405,-0.0412,-0.0438,-0.0379,-0.0508,-0.0512,-0.0515,-0.0569,-0.0578,-0.0586,0,0,0,0,0,-0.0214,-0.0259,-0.0254,-0.0264,-0.0329,-0.0377,-0.0387,-0.0388,-0.0376,-0.0398,-0.0404,-0.0377,-0.0434,-0.041,-0.0418,-0.0445,-0.0506,-0.0511,-0.0515,-0.0565,-0.0577,-0.0586,0,0,0,0,0,0,-0.0225,-0.0261,-0.0256,-0.0311,-0.0336,-0.0371,-0.04,-0.0402,-0.0431,-0.0429,-0.0415,-0.0415,-0.046,-0.0454,-0.0427,-0.0498,-0.0462,-0.0469,-0.0498,-0.0509,-0.0517,-0.0483,-0.0381,0,0,0,0,0,-0.0236,-0.0278,-0.0301,-0.0348,-0.036,-0.0383,-0.0406,-0.0411,-0.0436,-0.0446,-0.0455,-0.0468,-0.0492,-0.0497,-0.0524,-0.057,-0.0523,-0.059,-0.0599,-0.0606,-0.0585,-0.055,-0.0552,-0.0533,-0.0533,-0.0533,0,0,-0.0256,-0.0281,-0.0305,-0.0353,-0.0375,-0.0408,-0.0391,-0.0436,-0.0468,-0.0445,-0.0498,-0.0509,-0.0515,-0.0562,-0.0579,-0.0552,-0.059,-0.0612,-0.0618,-0.0592,-0.0555,-0.0556,-0.0557,-0.0536,-0.0535,-0.0535,0,0,-0.0307,-0.0335,-0.0374,-0.0398,-0.0431,-0.0447,-0.0458,-0.0499,-0.0516,-0.0576,-0.0561,-0.0581,-0.0633,-0.0628,-0.0634,-0.071,-0.0646,-0.0725,-0.0729,-0.0697,-0.0697,-0.0696,-0.0643,-0.0637,-0.0717,-0.0717,-0.0717,0,-0.032,-0.0374,-0.0394,-0.0429,-0.045,-0.0461,-0.0497,-0.0533,-0.0582,-0.0601,-0.0595,-0.0652,-0.0661,-0.0686,-0.0705,-0.0727,-0.0684,-0.0688,-0.0704,-0.0702,-0.0701,-0.0646,-0.0638,-0.072,-0.072,-0.072,-0.0719,0,-0.0388,-0.0427,-0.0456,-0.0496,-0.0525,-0.0569,-0.0596,-0.0633,-0.0655,-0.0679,-0.0724,-0.0735,-0.0749,-0.0767,-0.0758,-0.0759,-0.0725,-0.0725,-0.0668,-0.0705,-0.0646,-0.0637,-0.0725,-0.0724,-0.0723,-0.0722,0,0,-0.0421,-0.0486,-0.0495,-0.0506,-0.0563,-0.0586,-0.0647,-0.0691,-0.0716,-0.076,-0.0786,-0.0825,-0.0811,-0.0814,-0.0804,-0.0769,-0.0732,-0.0735,-0.0732,-0.0662,-0.0633,-0.0545,-0.0526,-0.0726,-0.0725,-0.0724,-0.0596,0,-0.0458,-0.0518,-0.0552,-0.0603,-0.0626,-0.0656,-0.0702,-0.0744,-0.0784,-0.0818,-0.0823,-0.0853,-0.0836,-0.0836,-0.0804,-0.0755,-0.071,-0.0764,-0.0622,-0.0617,-0.0519,-0.0514,-0.0721,-0.0589,-0.0587,-0.0585,-0.0584,0,-0.05,-0.0531,-0.0589,-0.0627,-0.064,-0.0684,-0.0732,-0.0778,-0.0831,-0.0859,-0.0876,-0.0878,-0.0852,-0.0834,-0.0732,-0.0763,-0.0695,-0.0646,-0.0641,-0.0523,-0.0512,-0.0545,-0.0567,-0.0569,-0.057,-0.0571,-0.0572,0,-0.0482,-0.0548,-0.0589,-0.061,-0.0667,-0.0703,-0.0737,-0.0798,-0.0824,-0.0883,-0.0886,-0.0879,-0.0847,-0.0781,-0.0684,-0.0703,-0.0551,-0.0573,-0.0425,-0.0418,-0.0508,-0.051,-0.0486,-0.0486,-0.0486,-0.0487,-0.0487,0,-0.0496,-0.0526,-0.0587,-0.0609,-0.0654,-0.0698,-0.0748,-0.0794,-0.0838,-0.0839,-0.0893,-0.0857,-0.0825,-0.0742,-0.0673,-0.0501,-0.0539,-0.04,-0.0372,-0.0539,-0.0546,-0.0501,-0.0505,-0.0482,-0.0483,-0.0484,-0.0485,0,-0.0478,-0.0521,-0.0561,-0.0625,-0.0652,-0.0686,-0.0748,-0.0764,-0.0818,-0.0815,-0.0823,-0.0817,-0.0704,-0.0651,-0.0526,-0.0454,-0.0335,-0.0267,-0.0424,-0.0412,-0.0226,-0.0235,-0.0087,-0.0083,-0.0079,-0.0076,-0.0073,0,-0.0477,-0.0499,-0.0565,-0.0585,-0.0628,-0.0679,-0.0702,-0.0762,-0.0762,-0.0756,-0.0726,-0.0656,-0.0628,-0.0388,-0.0352,-0.0213,-0.0194,-0.0133,-0.0197,-0.0194,-0.0182,-0.0197,-0.021,-0.0068,-0.0067,-0.0066,-0.0065,0,-0.0467,-0.0495,-0.0523,-0.0564,-0.06,-0.0628,-0.066,-0.0651,-0.0673,-0.07,-0.0596,-0.0521,-0.039,-0.0301,-0.0195,-0.0103,-0.0183,-0.0095,-0.0102,-0.0162,-0.0169,-0.0164,-0.0181,-0.0052,-0.0054,-0.0055,-0.0056,0,-0.0457,-0.0468,-0.05,-0.0533,-0.0563,-0.0571,-0.0598,-0.056,-0.0562,-0.0541,-0.0482,-0.0411,-0.0377,-0.0236,-0.0136,-0.0045,-0.0027,-0.0003,-0.0016,-0.0029,-0.0065,-0.0069,0.0129,0,0,0,0,0,-0.0442,-0.0442,-0.0462,-0.0497,-0.0517,-0.0542,-0.0554,-0.0567,-0.0562,-0.0458,-0.0472,-0.0349,-0.0199,-0.0165,-0.0047,-0.0089,-0.0036,0.0051,-0.0022,0.0018,0.0003,-0.0043,0,0,0,0,0,0,-0.0427,-0.0443,-0.0446,-0.0452,-0.0465,-0.0491,-0.0497,-0.0502,-0.0442,-0.0425,-0.035,-0.0302,-0.0177,-0.0263,-0.0042,-0.002,-0.0041,0.0107,0.011,0.0026,0.0013,0.0001,-0.0051,0,0,0,0,0]}]]